EW0784 Weather Reports


time (UTC)temp
C
wind
direction
speed
KPH
gust
KPH
rain 1hr
cm
rain 24hr
cm
rain mn
cm
humidity
%
barometer
mb
20260504044558 13 189 0.0 0.0 0.00 0.00 0.00 44 1002.0
20260504043105 13 187 0.0 0.0 0.00 0.00 0.00 42 1002.3
20260504041553 14 198 0.0 0.0 0.00 0.00 0.00 44 1002.5
20260504040112 13 205 0.0 0.0 0.00 0.00 0.00 44 1002.8
20260504034547 13 203 0.0 0.0 0.00 0.00 0.00 43 1003.2
20260504033045 13 214 0.0 0.0 0.00 0.00 0.00 42 1003.5
20260504031543 13 214 0.0 0.0 0.00 0.00 0.00 41 1003.7
20260504030043 13 214 0.0 0.0 0.00 0.00 0.00 44 1003.9
20260504024541 13 252 0.0 0.0 0.00 0.00 0.00 42 1004.1
20260504023040 14 252 0.0 0.0 0.00 0.00 0.00 40 1004.1
20260504021540 14 253 0.0 0.0 0.00 0.00 0.00 39 1004.1
20260504020040 15 253 0.0 0.0 0.00 0.00 0.00 35 1004.1
20260504014550 16 253 0.0 0.0 0.00 0.00 0.00 35 1004.1
20260504013037 17 253 0.0 0.0 0.00 0.00 0.00 32 1004.2
20260504011538 17 269 0.0 0.0 0.00 0.00 0.00 32 1004.3
20260504010036 18 264 0.0 0.0 0.00 0.00 0.00 29 1004.2
20260504004542 18 239 0.0 0.0 0.00 0.00 0.00 29 1004.3
20260504003032 19 250 0.0 3.2 0.00 0.00 0.00 28 1004.5
20260504001532 19 227 0.0 0.0 0.00 0.00 0.00 27 1004.6
20260504000032 20 265 0.0 16.1 0.00 0.00 0.00 28 1004.5
20260503234534 20 314 0.0 8.0 0.00 0.00 0.00 24 1004.5
20260503233030 21 233 0.0 9.7 0.00 0.00 0.00 24 1004.5
20260503231529 21 252 0.0 12.9 0.00 0.00 0.00 23 1004.6
20260503230026 21 266 0.0 14.5 0.00 0.00 0.00 22 1004.8
20260503224525 21 313 0.0 6.4 0.00 0.00 0.00 24 1004.9
20260503223023 21 319 0.0 0.0 0.00 0.00 0.00 23 1004.9
20260503221521 21 302 0.0 4.8 0.00 0.00 0.00 23 1005.0
20260503220020 21 274 0.0 16.1 0.00 0.00 0.00 23 1005.2
20260503214518 20 262 0.0 12.9 0.00 0.00 0.00 23 1005.4
20260503213019 20 242 1.6 20.9 0.00 0.00 0.00 22 1005.5
20260503211517 20 291 0.0 17.7 0.00 0.00 0.00 25 1005.5
20260503210017 20 278 0.0 16.1 0.00 0.00 0.00 24 1005.7
20260503204520 20 271 0.0 17.7 0.00 0.00 0.00 23 1005.8
20260503203016 20 311 3.2 17.7 0.00 0.00 0.00 21 1005.8
20260503201516 20 311 0.0 6.4 0.00 0.00 0.00 26 1005.9
20260503200018 21 343 0.0 9.7 0.00 0.00 0.00 24 1006.0
20260503194512 20 275 0.0 14.5 0.00 0.00 0.00 25 1006.1
20260503193026 20 11 0.0 12.9 0.00 0.00 0.00 26 1006.2
20260503191508 20 338 0.0 9.7 0.00 0.00 0.00 28 1006.3
20260503190009 20 281 3.2 19.3 0.00 0.00 0.00 26 1006.4
20260503184506 20 293 1.6 27.4 0.00 0.00 0.00 30 1006.4
20260503183004 20 305 0.0 19.3 0.00 0.00 0.00 31 1006.5
20260503181503 20 337 0.0 12.9 0.00 0.00 0.00 34 1006.7
20260503180000 19 351 0.0 11.3 0.00 0.00 0.00 34 1006.7
20260503174559 19 317 0.0 16.1 0.00 0.00 0.00 35 1006.9
20260503173100 18 18 0.0 12.9 0.00 0.00 0.00 37 1007.0
20260503171558 18 307 0.0 22.5 0.00 0.00 0.00 36 1007.0
20260503081559 13 195 0.0 0.0 0.00 0.00 0.00 57 1006.0